MERCREDI 9 NOVEMBRE ; EPIS ; AUREC
Départ du camping d'Aurec ; après une longue montée de 350 m à travers bois, et sous un ciel incertain, nous n'avons pû que redescendre jusqu'au pont d'Aurec où une super douche nous attendait !! Equipés de nos ponchos, direction l'amicale de Semène pour se sécher et manger au chaud, bien acqueillis par le sympathique Maurice. Retour sans pluie à nos véhicules. 16 km et 350 m de dénivelé. J.L.D
MERCREDI 9 NOVEMBRE ; MARCHE COOL COOL
Pluie, ne nous noyons pas restons chez nous ! le stan
MARDI 8 NOVEMBRE ; DOIZIEUX
Ce mardi, il est 14h20 quand le départ est donné pour une courte randonnée de 8 km mais avec un dénivelé de 400 m. Pour quitter le village il nous faut grimper par les ruelles étroites de Doizieux, ensuite la pente s’adoucit jusqu’à la Croix du Collet, altitude 946 m. D’ici le panorama sur la vallée du Rhône est impressionnant, les Alpes sont encore cachées par les nuages mais nous sommes au mois de novembre et il ne fait pas si froid même si le vent décoiffe celles et ceux qui ont encore des cheveux. La descente s’effectue par de larges et confortables chemins forestiers. Nous croisons d’énormes monticules de pierres dont l’origine est méconnue et même des toilettes d’époque. Le clocher de Doizieux salue notre retour en sonnant cinq fois, il est un peu plus de 17 heures quand nous rejoignons nos véhicules. Aujourd’hui nous étions un petit groupe de onze personnes. Merci à tous. Corine et Michel Giron
LUNDI 7 NOVEMBRE ; MARCHE DOUCE ; MONISTROL
C'est 22 PP sur la place de Monistrol pour une petite balade ensoleillée à travers la campagne et les gorges du Bilhard. GC
LUNDI 7 NOVEMBRE ; MARCHE NORDIQUE ; ROCHETAILLEE
Une dizaine de PP aujourd'hui autour des barrages de Rochetaillée. 10 km, un peu trop à l'ombre. CD
JEUDI 3 NOVEMBRE ; 1er groupe ; DOIZIEUX
Trente-deux pieds plats ce matin dans le charmant petit village de Doizieux. Tout le monde est à l’heure et c’est bien à neuf heures que le départ est donné. Une courte montée nous permet de surplomber le barrage sur Le Dorlay puis une bonne descente nous conduit à l’entrée de La Terrasse-sur-Dorlay. Une autre petite bosse jusqu’à La Croix du Pendu et une remontée dans la vallée du Sellon pour rejoindre La Croix du Mazet. En chemin nous croisons perruches, perroquets, chameaux et yacks vers le hameau de Carré. Le plus fort dénivelé de la journée se situe entre cette étape et la Croix de Montvieux. Il est temps de trouver un endroit abrité pour pique-niquer car le vent redouble et la pluie s’est invitée. Le repas est pris rapidement et comme pour nous narguer la pluie s’est arrêtée. Une dernière côte vers Le Collet de Doizieux, point culminant de cette randonnée et rapide descente vers Doizieux. Merci à la pluie qui n’a duré que le temps du repas et aux randonneurs qui, malgré une météo défavorable, se sont lancées sur les sentiers du Parc du Pilat. Michel Giron, le guide
LUNDI 31 OCTOBRE ; MARCHE NORDIQUE ; ROCHE LA MOLIERE
Nouveau parcours d'une dizaine de km, autour de Roche, un peu au pif, mais pas mal !
VENDREDI 28 OCTOBRE ; RANDO PATRIMOINE ; STE CROIX EN JAREZ
17 Pieds Plats se sont retrouvés, en début de matinée, au charmant village de Sainte Croix en Jarez. Sous un ciel clément et avec des températures particulièrement douces, ils ont entrepris une randonnée qui les a conduits à la croix de Marlin, aux Roches du même nom avec leurs pierres à cupules et à la chapelle romane de Jurieux. C’est sur ce dernier site, qu’ils ont été rejoints par 7 autres Pieds Plats partis un peu plus tard. A l’issue du déjeuner pris à Sainte Croix, la visite guidée a débuté. Cour des frères, jardin potager, lieux de culte, cours des pères, cellule : la guide leur a fait découvrir le site et l’histoire de la Chartreuse avant de les convier à une dégustation de Chartreuse, cela va de soi, fort appréciée. A noter, vacances scolaires obligent, la présence tonique de 5 jeunes Pieds Plats en herbe confiés à la garde de leurs grands-parents. Corine Giron
/image%2F0724814%2F20221111%2Fob_ce8a46_20221110-083505.jpg)
/image%2F0724814%2F20221111%2Fob_734013_20221110-084441.jpg)
/image%2F0724814%2F20221111%2Fob_c166a2_20221110-094234.jpg)
/image%2F0724814%2F20221111%2Fob_98a0ea_20221110-102955.jpg)
/image%2F0724814%2F20221111%2Fob_302a27_20221110-103024.jpg)
/image%2F0724814%2F20221111%2Fob_6c2d33_20221110-103029.jpg)
/image%2F0724814%2F20221111%2Fob_39f356_20221110-105524.jpg)
/image%2F0724814%2F20221111%2Fob_405ee1_20221110-105535.jpg)
/image%2F0724814%2F20221111%2Fob_a38db7_20221110-105541.jpg)
/image%2F0724814%2F20221111%2Fob_0f98e9_20221110-112644.jpg)
/image%2F0724814%2F20221111%2Fob_5297d1_20221110-112701.jpg)
/image%2F0724814%2F20221111%2Fob_538879_20221110-112718.jpg)
/image%2F0724814%2F20221111%2Fob_64e52d_20221110-123904.jpg)
/image%2F0724814%2F20221111%2Fob_05dda8_20221110-123924.jpg)
/image%2F0724814%2F20221111%2Fob_6566e5_20221110-130236.jpg)
/image%2F0724814%2F20221111%2Fob_cea937_20221110-130303.jpg)
/image%2F0724814%2F20221111%2Fob_10312a_20221110-134216.jpg)
/image%2F0724814%2F20221111%2Fob_6ef556_20221110-134248.jpg)
/image%2F0724814%2F20221111%2Fob_5fe873_20221110-140350.jpg)
/image%2F0724814%2F20221111%2Fob_7a876f_20221110-140424.jpg)
/image%2F0724814%2F20221111%2Fob_5b1242_20221110-140444.jpg)
/image%2F0724814%2F20221111%2Fob_5ea9c6_20221110-142619.jpg)
/image%2F0724814%2F20221111%2Fob_c5dc47_20221110-142703.jpg)
/image%2F0724814%2F20221111%2Fob_d46453_20221110-142724.jpg)
/image%2F0724814%2F20221111%2Fob_415366_20221110-153656.jpg)
/image%2F0724814%2F20221111%2Fob_f40f0a_20221110-153712.jpg)
/image%2F0724814%2F20221111%2Fob_505ec1_20221109-095532.jpg)
/image%2F0724814%2F20221111%2Fob_a7de2a_20221109-102606.jpg)
/image%2F0724814%2F20221111%2Fob_5a2018_20221109-111502.jpg)
/image%2F0724814%2F20221111%2Fob_a16ba1_20221109-111533.jpg)
/image%2F0724814%2F20221111%2Fob_2c67e8_20221109-111452.jpg)
/image%2F0724814%2F20221111%2Fob_1f0eda_20221108-153431.jpg)
/image%2F0724814%2F20221111%2Fob_1c1f4f_20221108-162830.jpg)
/image%2F0724814%2F20221111%2Fob_ad8217_20221108-162832.jpg)
/image%2F0724814%2F20221111%2Fob_f1e0bd_y4m-xect04t9consonbny1kdao1tgzlerkx5t.jpg)
/image%2F0724814%2F20221107%2Fob_47b9e0_img20221107135558.jpg)
/image%2F0724814%2F20221107%2Fob_6cee9d_img20221107140600.jpg)
/image%2F0724814%2F20221107%2Fob_7fc425_img20221107153710.jpg)
/image%2F0724814%2F20221107%2Fob_5c0f85_img20221107161317.jpg)
/image%2F0724814%2F20221107%2Fob_8e04ce_20221107-163410.jpg)
/image%2F0724814%2F20221107%2Fob_a4a121_20221107-163430.jpg)
/image%2F0724814%2F20221107%2Fob_0ebe7c_20221107-163441.jpg)
/image%2F0724814%2F20221104%2Fob_7e66d1_20221103-090637.jpg)
/image%2F0724814%2F20221104%2Fob_e0ac5e_20221103-090647.jpg)
/image%2F0724814%2F20221104%2Fob_f74cd8_20221103-111959.jpg)
/image%2F0724814%2F20221104%2Fob_9ef8d7_20221103-112014.jpg)
/image%2F0724814%2F20221104%2Fob_3d0bf8_20221103-112019.jpg)
/image%2F0724814%2F20221104%2Fob_4cc49e_20221103-112427.jpg)
/image%2F0724814%2F20221104%2Fob_931c62_20221103-142720.jpg)
/image%2F0724814%2F20221104%2Fob_a5c0ef_20221103-142803.jpg)
/image%2F0724814%2F20221104%2Fob_edf7db_20221103-153205.jpg)
/image%2F0724814%2F20221104%2Fob_550a16_doizieux.png)
/image%2F0724814%2F20221104%2Fob_9b9734_20221031-144942.jpg)
/image%2F0724814%2F20221104%2Fob_6a391d_20221031-144952.jpg)
/image%2F0724814%2F20221104%2Fob_e7049a_20221031-145013.jpg)
/image%2F0724814%2F20221104%2Fob_129cbe_20221031-153750.jpg)
/image%2F0724814%2F20221104%2Fob_fd6b61_20221031-153754.jpg)
/image%2F0724814%2F20221029%2Fob_1977f6_20221028-085259.jpg)
/image%2F0724814%2F20221029%2Fob_60d5da_20221028-091829.jpg)
/image%2F0724814%2F20221029%2Fob_b77d6d_20221028-091837.jpg)
/image%2F0724814%2F20221029%2Fob_1bff1b_20221028-091842.jpg)
/image%2F0724814%2F20221029%2Fob_0c146a_20221028-092721.jpg)
/image%2F0724814%2F20221029%2Fob_e0fdd5_20221028-102044.jpg)
/image%2F0724814%2F20221029%2Fob_d66f7d_20221028-103347.jpg)
/image%2F0724814%2F20221029%2Fob_6a5d61_20221028-103505.jpg)
/image%2F0724814%2F20221029%2Fob_c31782_20221028-103511.jpg)
/image%2F0724814%2F20221029%2Fob_681249_20221028-103530.jpg)
/image%2F0724814%2F20221029%2Fob_3689a0_20221028-103728.jpg)
/image%2F0724814%2F20221029%2Fob_70f160_20221028-104739.jpg)
/image%2F0724814%2F20221029%2Fob_96e791_20221028-105154.jpg)
/image%2F0724814%2F20221029%2Fob_57afd0_20221028-105431.jpg)
/image%2F0724814%2F20221029%2Fob_9126a9_20221028-105503.jpg)
/image%2F0724814%2F20221029%2Fob_44dd47_20221028-105842.jpg)
/image%2F0724814%2F20221029%2Fob_8f78d1_20221028-105949.jpg)
/image%2F0724814%2F20221029%2Fob_c7e1d5_20221028-112600.jpg)
/image%2F0724814%2F20221029%2Fob_4acd5c_20221028-112927.jpg)
/image%2F0724814%2F20221029%2Fob_3a11df_20221028-112944.jpg)
/image%2F0724814%2F20221029%2Fob_6dcdc1_20221028-122522.jpg)
/image%2F0724814%2F20221029%2Fob_227a80_20221028-123439.jpg)
/image%2F0724814%2F20221029%2Fob_21beac_20221028-123447.jpg)
/image%2F0724814%2F20221029%2Fob_9a0b9c_20221028-141255.jpg)
/image%2F0724814%2F20221029%2Fob_5b2682_20221028-141515.jpg)
/image%2F0724814%2F20221029%2Fob_121e65_20221028-141528.jpg)
/image%2F0724814%2F20221029%2Fob_e91a9c_20221028-141958.jpg)
/image%2F0724814%2F20221029%2Fob_bd0f83_20221028-142029.jpg)
/image%2F0724814%2F20221029%2Fob_829a0d_20221028-142108.jpg)
/image%2F0724814%2F20221029%2Fob_588015_20221028-145324.jpg)
/image%2F0724814%2F20221029%2Fob_6bcf8e_20221028-145547.jpg)
/image%2F0724814%2F20221029%2Fob_71d0d9_20221028-150802.jpg)
/image%2F0724814%2F20221029%2Fob_8237c7_20221028-151450.jpg)
/image%2F0724814%2F20221029%2Fob_ae8abc_20221028-153054.jpg)
/image%2F0724814%2F20221029%2Fob_9776ca_20221028-154839.jpg)
/image%2F0724814%2F20221029%2Fob_aad270_20221028-155328.jpg)
/image%2F0724814%2F20221029%2Fob_26584b_img20221027102009.jpg)
/image%2F0724814%2F20221029%2Fob_f4cf5f_img20221027122120.jpg)
/image%2F0724814%2F20221029%2Fob_f72d68_img20221027123951.jpg)
/image%2F0724814%2F20221029%2Fob_2a67b4_img20221027124926.jpg)